Location: Poughquag
(41.6090°N, 73.6820°W)
Time: 12:10:41
(UTC-04:00)

A-11 Canister half - Pass Details

Date: 02 June 2020
Orbit: 1527 x 1682 km, 47.3° (Epoch: 06 July)

Event Time Altitude Azimuth Distance (km) Brightness Sun altitude
Rises 11:54:30 0° 291° (WNW) 4,699 11.4 67.1°
Reaches altitude 10° 11:57:32 10° 293° (WNW) 3,727 11.0 67.5°
Maximum altitude 12:07:01 76° 19° (NNE) 1,620 10.4 68.4°
Drops below altitude 10° 12:16:46 10° 106° (ESE) 3,837 11.4 69.3°
Sets 12:19:57 0° 108° (ESE) 4,842 11.8 69.5°
